This is the latest recevied weather packets stored in our database for station/object XE2RCS-1. If no packets are shown the sender has not sent any weather packets the latest 10 day(s).
| Time | Temp. | Humidity | Pressure | Rain* | Wind** | Luminosity | Snow |
|---|---|---|---|---|---|---|---|
| 1777470505 | 24.44° C | 50% | 1013 hPa | 0 mm | - | - | - |
| 1777469904 | 25° C | 49% | 1013 hPa | 0 mm | - | - | - |
| 1777469303 | 25° C | 42% | 1013 hPa | 0 mm | - | - | - |
| 1777468703 | 25° C | 42% | 1013 hPa | 0 mm | - | - | - |
| 1777468102 | 23.89° C | 43% | 1013 hPa | 0 mm | - | - | - |
| 1777467501 | 23.89° C | 42% | 1013 hPa | 0 mm | - | - | - |
| 1777466901 | 23.33° C | 43% | 1013 hPa | 0 mm | - | - | - |
| 1777466300 | 23.33° C | 44% | 1013 hPa | 0 mm | - | - | - |
| 1777465700 | 23.33° C | 45% | 1013 hPa | 0 mm | - | - | - |
| 1777465099 | 23.33° C | 43% | 1013 hPa | 0 mm | - | - | - |
| 1777464498 | 23.89° C | 42% | 1013 hPa | 0 mm | - | - | - |
| 1777463898 | 24.44° C | 40% | 1013 hPa | 0 mm | - | - | - |
| 1777463297 | 23.89° C | 44% | 1013 hPa | 0 mm | - | - | - |
| 1777462696 | 23.33° C | 43% | 1013 hPa | 0 mm | - | - | - |
| 1777462096 | 23.33° C | 43% | 1012 hPa | 0 mm | - | - | - |
| 1777461495 | 22.78° C | 44% | 1012 hPa | 0 mm | - | - | - |
| 1777460894 | 23.33° C | 42% | 1012 hPa | 0 mm | - | - | - |
| 1777460294 | 23.33° C | 43% | 1012 hPa | 0 mm | - | - | - |
| 1777459693 | 23.33° C | 43% | 1012 hPa | 0 mm | - | - | - |
| 1777459092 | 23.33° C | 43% | 1012 hPa | 0 mm | - | - | - |
| 1777458492 | 23.33° C | 42% | 1012 hPa | 0 mm | - | - | - |
| 1777457891 | 23.33° C | 42% | 1012 hPa | 0 mm | - | - | - |
| 1777457291 | 23.33° C | 42% | 1012 hPa | 0 mm | - | - | - |
| 1777456690 | 23.33° C | 43% | 1012 hPa | 0 mm | - | - | - |
| 1777456089 | 23.33° C | 43% | 1012 hPa | 0 mm | - | - | - |
* Rain latest hour (hover to see other rain measurements)
** Current wind speed in m/s (hover to see current wind gust speed)